STARLINK-32605, 61921

Orbit data source: Space-Track

STARLINK-32605, 61921 is a payload satellite owned by SpaceX/Seattle (US) in LEO that was launched on Mon, 11 Nov 2024 UTC via an FALCON 9 launch vehicle from the Air Force Eastern Test Range (AFETR). Payload-class satellites include a variety of spacecraft equipped with specific instruments for various scientific and technological missions. These include communications satellites like Starlink; space stations such as the ISS; scientific satellites like the Hubble; Earth observation satellites from companies like Planet Labs, Umbra, and HawkEye 360; GPS; miniature CubeSats for education and research; and military/defense satellites.

Loading next visibility...
Identifier
61921, 2024-207K
Orbit
LEO
Country
Flag of USUS
Related business
Manufacturer
SpaceX/Seattle
Mission
Operational Commercial Communications
Bus & Motor
STARLINK V2M, Unknown motor
Mass
730 kg wet, ~700 kg dry
Launch date (UTC)
2024-11-11 (1 year ago)
Launch vehicle
FALCON 9
Launch site
Air Force Eastern Test Range (AFETR)
Object type
Payload
Rocket body
Debris
Shape & HBR
Box + 2 Pan, 17.7 m
Radar Cross Section
33.884 m², Large (>1 m²)

Expand to show TLE details & history
Last TLE update: 1 day ago

TLE from 1 day ago
0 STARLINK-32605
1 61921U 24207K   25312.13263551  .00067888  00000-0  24504-2 0  9997
2 61921  43.0034 248.0470 0000617 220.2751 139.8055 15.27627806 56133
Epoch: 2025-11-08T03:10Z
TLE epoch observation values (Epoch: 2025-11-08T03:10:59.708Z)
Latitude
-0.00001°
Longitude
152.73158°
Altitude
483.005 km
Speed
7.626 km/s
True Right ascension
16h 32m 11s
True Declination
0° 00' 00"
Sunlit
Object was in daylight at epoch
Visualization orbit readout
Latitude
Unknown
Longitude
Unknown
Altitude
Unknown
Speed
Unknown
Apparent Right ascension
Unknown
Apparent Declination
Unknown
Sunlit
N/A
Visualization observer readout
Local Sidereal Time
02:52:01
Azimuth
Unknown
Elevation
Unknown
Doppler factor
Unknown
Orbital elements
Apogee altitude
485.274 km
Perigee altitude
484.427 km
Semi-major axis
6,862.988 km
Eccentricity
0.00006
Inclination
43.0034°
RAAN
248.047°
Arg. of periapsis
220.2751°
True anomaly
139.81006°
Mean anomaly
139.8055°
Eccentric anomaly
139.80778°
Mean motion
3.81745 °/min
Orbital period
94.3 mins
BSTAR
0.0024504
Loading maneuver chart data...
Computing Atmospheric mass density...
Loading historical data...
Loading historical data...
Loading historical data...
Loading historical data...
Loading historical data...
Loading historical data...
Loading historical data...

Documentation

Showing up to 5 results
|